Regional Weather Roundup
Issued by NWS

Home | Current Version | Previous Version | Graphics & Text | Print | Product List | Glossary On
Versions: 1 2 3 4 5 6 7 8 9 10 11 12 13 14 15 16 17 18 19 20 21 22 23 24 25 26 27 28 29 30 31 32 33 34 35 36 37 38 39 40 41 42 43 44 45 46 47 48 49 50
000
ASUS45 KCYS 042010
RWRWY

WYOMING REGIONAL WEATHER ROUNDUP
NATIONAL WEATHER SERVICE CHEYENNE WY
200 PM MDT SAT JUL 04 2015

NOTE:  "FAIR" INDICATES FEW OR NO CLOUDS BELOW 12,000 FEET
WITH NO SIGNIFICANT WEATHER AND/OR OBSTRUCTIONS TO VISIBILITY.

WYZ001-042100-
YELLOWSTONE NATIONAL PARK

CITY           SKY/WX    TMP DP  RH WIND       PRES   REMARKS
LK YELLOWSTONE   N/A     75  42  30 E8        30.19F
W YELLOWSTONE  NOT AVBL

$$
WYZ002>013-054>058-071-098>099-042100-
NORTHERN WYOMING

CITY           SKY/WX    TMP DP  RH WIND       PRES   REMARKS
JACKSON        FAIR      84  43  23 SW8       30.07F
CODY           FAIR      90  43  19 NE9       29.93F
GREYBULL       FAIR      95  42  16 SW6       29.84F HX  91
WORLAND        FAIR      94  45  18 N8        29.86F HX  90
SHERIDAN       FAIR      93  46  19 VRB3      29.86S
BUFFALO        FAIR      89  48  24 NE6       29.95F
GILLETTE       FAIR      91  46  21 NW9G20    29.90S
HULETT         FAIR      88  50  27 SW3       29.91F
NEWCASTLE      FAIR      86  54  32 W7        29.91S

$$
WYZ014>020-022>026-101>103-042100-
CENTRAL WYOMING

CITY           SKY/WX    TMP DP  RH WIND       PRES   REMARKS
BIG PINEY      FAIR      90  30  11 NW14G22   30.12S
PINEDALE       FAIR      86  32  14 SW8       30.13S
DUBOIS         MOCLDY    82  30  15 N9        30.09F
LANDER         FAIR      91  48  22 E7        29.96F
RIVERTON       FAIR      90  46  21 E9        29.97F
CASPER         FAIR      90  47  22 VRB5      29.96F
DOUGLAS        FAIR      90  49  24 CALM      29.95S

$$
WYZ021-027>030-104>119-042100-
SOUTHERN WYOMING

CITY           SKY/WX    TMP DP  RH WIND       PRES   REMARKS
EVANSTON       PTSUNNY   85  42  22 W12G17    30.16S
KEMMERER       FAIR     N/A N/A N/A NW8G21    30.16F
FORT BRIDGER   MOCLDY    86  39  19 W10       30.17S
ROCK SPRINGS   FAIR      85  40  20 W16G23    30.11F
DIXON          FAIR      87  40  19 W6        30.11F
RAWLINS        LGT RAIN  81  41  24 W6        30.10S
SARATOGA       FAIR      88  39  18 W14G20    30.13F
LARAMIE        LGT RAIN  80  44  27 W9        30.14S
CHEYENNE       FAIR      88  44  21 NW7       30.05S
TORRINGTON     FAIR      92  60  34 S7        29.89F HX  91
PINE BLUFFS    FAIR      90  50  25 SE7       29.98S

$$



USA.gov is the U.S. government's official web portal to all federal, state and local government web resources and services.